Weather History for KLWB - December, 2013

Change the Weather History Date:

Sunday, December 15, 2013

  Actual Average Record
Temperature  
Mean Temperature 32 °F 31 °F  
Max Temperature 36 °F 41 °F 70 °F (1984)
Min Temperature 27 °F 22 °F 9 °F (1989)
Degree Days  
Heating Degree Days 33    
Month to date heating degree days 470  
Since 1 July heating degree days 470  
Cooling Degree Days 0    
Month to date cooling degree days 0  
Year to date cooling degree days 0  
Moisture  
Dew Point 25 °F    
Average Humidity 84    
Maximum Humidity 96    
Minimum Humidity 72    
Precipitation  
Precipitation 0.01 in 0.11 in 0.11 in (2011)
Month to date precipitation 2.23 1.61  
Year to date precipitation 2.23 38.43  
Snow  
Snow 0.00 in - - ()
Month to date snowfall 2.3  
Since 1 July snowfall 2.3  
Snow Depth 0.00 in    
Sea Level Pressure  
Sea Level Pressure 29.87 in    
Wind  
Wind Speed 7 mph (West)    
Max Wind Speed 13 mph    
Max Gust Speed 20 mph    
Visibility 8 miles    
Events      
T = Trace of Precipitation, MM = Missing Value Source: NWS Daily Summary

Daily Weather History Graph

Daily Weather History Graph

Search for Another Location

Airport or City:

Trip Planner

Search our weather history database for the weather conditions in past years. The results will help you decide how hot, cold, wet, or windy it might be!

Date:

Astronomy

Dec. 15, 2013 Rise Set
Actual Time 7:30 AM EST 5:03 PM EST
Civil Twilight 7:00 AM EST 5:33 PM EST
Nautical Twilight 6:27 AM EST 6:06 PM EST
Astronomical Twilight 5:55 AM EST 6:38 PM EST
Moon 4:05 PM EST (12/15) 5:46 AM EST (12/15)
Length of Visible Light 10h 32m
Length of Day
9h 33m
Waxing Gibbous, 97% of the Moon is Illuminated
Dec 15
Waxing Gibbous
Dec 17
Full
Dec 25
Last Quarter
Jan 1
New
Jan 7
First Quarter

Hourly Weather History & Observations

Time (EST) Temp. Windchill Dew Point Humidity Pressure Visibility Wind Dir Wind Speed Gust Speed Precip Events Conditions
12:15 AM 31.6 °F - 30.9 °F 97% 29.69 in 1.2 mi Calm Calm - N/A   Overcast
12:35 AM 31.8 °F 28.5 °F 31.1 °F 97% 29.74 in 2.0 mi West 3.5 mph - N/A   Overcast
1:35 AM 32.0 °F - 31.1 °F 96% 29.70 in 2.5 mi Calm Calm - 0.01 in   Overcast
1:55 AM 32.0 °F - 31.3 °F 97% 29.72 in 4.0 mi Calm Calm - 0.01 in   Overcast
2:15 AM 32.0 °F - 31.3 °F 97% 29.71 in 3.0 mi Calm Calm - N/A   Overcast
2:35 AM 31.6 °F 27.0 °F 30.9 °F 97% 29.72 in 0.8 mi SSW 4.6 mph - N/A   Overcast
2:55 AM 32.0 °F 28.7 °F 31.6 °F 99% 29.72 in 2.5 mi SSW 3.5 mph - N/A   Overcast
3:15 AM 32.0 °F - 31.8 °F 99% 29.71 in 4.0 mi Calm Calm - N/A   Overcast
3:35 AM 32.5 °F 28.1 °F 32.0 °F 98% 29.73 in 4.0 mi SW 4.6 mph - N/A   Overcast
3:55 AM 34.3 °F 30.2 °F 33.4 °F 97% 29.72 in 5.0 mi WSW 4.6 mph - N/A   Overcast
4:15 AM 34.9 °F 27.7 °F 34.0 °F 97% 29.73 in 10.0 mi West 9.2 mph 16.1 mph N/A   Overcast
4:35 AM 35.4 °F 27.8 °F 32.2 °F 88% 29.74 in 10.0 mi West 10.4 mph 18.4 mph N/A   Overcast
4:55 AM 34.9 °F 26.6 °F 31.6 °F 88% 29.75 in 10.0 mi West 11.5 mph 16.1 mph N/A   Overcast
5:15 AM 34.7 °F 25.9 °F 30.9 °F 86% 29.75 in 10.0 mi West 12.7 mph 24.2 mph N/A   Overcast
5:35 AM 34.0 °F 27.2 °F 30.6 °F 87% 29.75 in 10.0 mi WNW 8.1 mph - N/A   Overcast
5:55 AM 33.8 °F 25.8 °F 30.0 °F 86% 29.76 in 7.0 mi West 10.4 mph - N/A   Overcast
6:15 AM 32.9 °F 24.7 °F 30.0 °F 89% 29.76 in 10.0 mi West 10.4 mph 17.3 mph N/A   Overcast
6:35 AM 32.9 °F 25.3 °F 29.3 °F 87% 29.76 in 10.0 mi West 9.2 mph 16.1 mph N/A   Overcast
6:55 AM 33.1 °F 26.9 °F 28.2 °F 82% 29.78 in 10.0 mi WNW 6.9 mph - N/A   Overcast
7:15 AM 32.5 °F 25.5 °F 28.4 °F 85% 29.79 in 7.0 mi WNW 8.1 mph - N/A   Overcast
7:35 AM 32.2 °F 23.8 °F 27.5 °F 83% 29.80 in 5.0 mi WNW 10.4 mph 19.6 mph N/A   Haze
7:55 AM 32.0 °F 24.8 °F 27.1 °F 82% 29.81 in 5.0 mi WNW 8.1 mph - N/A   Haze
8:15 AM 32.2 °F 23.8 °F 26.6 °F 80% 29.81 in 10.0 mi West 10.4 mph 17.3 mph N/A   Overcast
8:35 AM 32.0 °F 24.2 °F 26.8 °F 81% 29.82 in 10.0 mi West 9.2 mph 17.3 mph N/A   Overcast
8:55 AM 32.2 °F 22.7 °F 26.2 °F 79% 29.83 in 10.0 mi WNW 12.7 mph 18.4 mph N/A   Overcast
9:15 AM 32.0 °F 24.2 °F 26.6 °F 80% 29.85 in 5.0 mi WNW 9.2 mph 19.6 mph N/A   Haze
9:35 AM 32.0 °F 24.8 °F 26.6 °F 80% 29.86 in 10.0 mi WNW 8.1 mph - N/A   Overcast
9:55 AM 31.8 °F 24.6 °F 26.4 °F 80% 29.88 in 10.0 mi WNW 8.1 mph - N/A   Overcast
10:15 AM 31.1 °F 21.9 °F 25.5 °F 80% 29.89 in 10.0 mi WNW 11.5 mph 19.6 mph N/A   Overcast
10:35 AM 30.9 °F 21.2 °F 25.2 °F 79% 29.89 in 10.0 mi WNW 12.7 mph 18.4 mph N/A   Overcast
10:55 AM 31.1 °F 24.5 °F 24.8 °F 77% 29.89 in 10.0 mi WNW 6.9 mph 19.6 mph N/A   Overcast
11:15 AM 30.6 °F 23.1 °F 25.5 °F 82% 29.89 in 5.0 mi West 8.1 mph - N/A   Haze
11:35 AM 30.9 °F 21.2 °F 24.6 °F 77% 29.89 in 10.0 mi West 12.7 mph 17.3 mph N/A   Overcast
11:55 AM 29.7 °F 20.7 °F 24.1 °F 80% 29.89 in 10.0 mi WNW 10.4 mph 18.4 mph N/A   Overcast
12:15 PM 29.1 °F 21.3 °F 24.3 °F 82% 29.89 in 10.0 mi WNW 8.1 mph - N/A   Overcast
12:35 PM 29.1 °F 19.4 °F 23.7 °F 80% 29.89 in 10.0 mi West 11.5 mph 19.6 mph N/A   Overcast
12:55 PM 28.4 °F 19.7 °F 23.5 °F 82% 29.89 in 10.0 mi WNW 9.2 mph 18.4 mph N/A   Overcast
1:15 PM 28.2 °F 18.3 °F 23.2 °F 81% 29.90 in 7.0 mi WNW 11.5 mph 16.1 mph N/A   Overcast
1:35 PM 28.0 °F 19.3 °F 23.5 °F 83% 29.90 in 5.0 mi WNW 9.2 mph 17.3 mph N/A   Haze
1:55 PM 28.0 °F 20.8 °F 23.2 °F 82% 29.90 in 7.0 mi NW 6.9 mph - N/A   Overcast
2:15 PM 28.2 °F 21.0 °F 23.7 °F 83% 29.91 in 4.0 mi WNW 6.9 mph - N/A   Overcast
2:35 PM 27.9 °F 17.8 °F 22.5 °F 80% 29.92 in 7.0 mi West 11.5 mph 16.1 mph N/A   Overcast
2:55 PM 27.9 °F 19.1 °F 22.8 °F 81% 29.92 in 7.0 mi West 9.2 mph - N/A   Overcast
3:15 PM 27.7 °F 19.6 °F 22.8 °F 82% 29.92 in 10.0 mi West 8.1 mph - N/A   Overcast
3:35 PM 28.2 °F 16.8 °F 21.2 °F 75% 29.93 in 10.0 mi West 15.0 mph 19.6 mph N/A   Overcast
3:55 PM 27.9 °F 19.8 °F 19.9 °F 72% 29.93 in 10.0 mi WNW 8.1 mph 17.3 mph N/A   Overcast
4:15 PM 27.5 °F 18.0 °F 20.1 °F 74% 29.93 in 10.0 mi West 10.4 mph - N/A   Overcast
4:35 PM 27.9 °F 20.6 °F 20.3 °F 73% 29.94 in 10.0 mi WNW 6.9 mph - N/A   Overcast
4:55 PM 27.7 °F 19.6 °F 20.7 °F 75% 29.94 in 10.0 mi West 8.1 mph - N/A   Overcast
5:15 PM 27.9 °F 19.1 °F 20.7 °F 74% 29.95 in 10.0 mi West 9.2 mph - N/A   Overcast
5:35 PM 27.9 °F 20.6 °F 20.8 °F 75% 29.96 in 10.0 mi West 6.9 mph - N/A   Overcast
5:55 PM 28.2 °F 21.0 °F 21.2 °F 75% 29.96 in 10.0 mi West 6.9 mph - N/A   Overcast
6:15 PM 28.2 °F 18.9 °F 21.2 °F 75% 29.96 in 10.0 mi WSW 10.4 mph - N/A   Overcast
6:35 PM 28.4 °F 22.2 °F 21.6 °F 76% 29.97 in 10.0 mi WSW 5.8 mph 10.4 mph N/A   Overcast
6:55 PM 28.4 °F 19.7 °F 21.9 °F 77% 29.98 in 10.0 mi West 9.2 mph - N/A   Overcast
7:15 PM 28.4 °F 20.4 °F 22.1 °F 77% 29.98 in 10.0 mi West 8.1 mph - N/A   Overcast
7:35 PM 28.4 °F 20.4 °F 22.3 °F 78% 29.98 in 10.0 mi WSW 8.1 mph - N/A   Overcast
7:55 PM 28.4 °F 19.1 °F 22.5 °F 78% 30.00 in 10.0 mi West 10.4 mph 18.4 mph N/A   Overcast
8:15 PM 28.4 °F 19.1 °F 21.7 °F 76% 29.99 in 10.0 mi West 10.4 mph 19.6 mph N/A   Overcast
8:35 PM 28.4 °F 18.0 °F 21.7 °F 76% 30.00 in 10.0 mi West 12.7 mph 18.4 mph N/A   Overcast
8:55 PM 28.4 °F 20.4 °F 21.7 °F 76% 29.99 in 10.0 mi West 8.1 mph 17.3 mph N/A   Overcast
9:15 PM 28.2 °F 22.0 °F 22.1 °F 78% 29.99 in 10.0 mi WSW 5.8 mph - N/A   Overcast
9:35 PM 28.2 °F 22.0 °F 22.1 °F 78% 29.99 in 10.0 mi West 5.8 mph - N/A   Overcast
9:55 PM 28.2 °F 18.3 °F 21.2 °F 75% 29.99 in 10.0 mi West 11.5 mph 17.3 mph N/A   Overcast
10:15 PM 28.2 °F 22.0 °F 21.6 °F 76% 30.00 in 10.0 mi West 5.8 mph - N/A   Overcast
10:35 PM 28.2 °F 18.3 °F 21.7 °F 77% 30.01 in 10.0 mi West 11.5 mph 18.4 mph N/A   Overcast
10:55 PM 28.0 °F 20.0 °F 21.7 °F 77% 30.00 in 10.0 mi West 8.1 mph - N/A   Overcast
11:15 PM 28.0 °F 18.1 °F 21.6 °F 77% 30.00 in 10.0 mi West 11.5 mph 17.3 mph N/A   Overcast
11:35 PM 27.9 °F 19.1 °F 21.2 °F 76% 30.01 in 10.0 mi West 9.2 mph - N/A   Overcast
11:55 PM 27.9 °F 19.1 °F 20.8 °F 75% 30.00 in 10.0 mi West 9.2 mph 18.4 mph N/A   Overcast